Flag for U.S.A. Weather past 2 weeks in Midway, Midway Atoll, U.S.A.

Now
82 °F

Sunny.


Feels Like: 91 °F
Forecast: 79 / 86 °F
Wind: 8 mph from South

Location: Midway Island Naval Air Facility

Current Time: Oct 23, 2014 at 9:44:12 AM

Latest Report: Oct 23, 2014 at 8:56 AM


Visibility: 10 mi

Pressure: 30.89 "Hg

Humidity: 88%

Dew point: 78 °F

Location of MidwayLocation

Historic Weather in Midway — Graph

°F

Midway temperature yesterday

Maximum temperature yesterday: 87 °F (at 11:56 AM)
Minimum temperature yesterday: 79 °F (at 1:56 AM)
Average temperature yesterday: 82 °F

Past Weeks' High & Low Weather Summary

 TemperatureHumidityPressure
High90 °F (Oct 14, 10:25 AM)100% (Oct 19, 6:17 AM)31.00 "Hg (Oct 19, 6:17 AM)
Low73 °F (Oct 20, 5:56 AM)55% (Oct 9, 12:56 PM)28.05 "Hg (Oct 9, 10:56 PM)
Average80 °F80%30.17 "Hg
* Reported Oct 8 7:56 AM — Oct 23 7:56 AM, Midway, Weather by CustomWeather, © 2014

Note: Actual official high and low records may vary slightly from our data, if they occured in-between our weather recording intervals... More about our weather records

Advertising

Midway weather history for previous 24 hours

 ConditionsComfort  
Time TempWeatherWind HumidityBarometerVisibility
7:56 AM
Oct 23
82 °FPassing clouds.9 mph88%30.86 "Hg9 mi
6:56 AM80 °FPassing clouds.8 mph94%30.85 "Hg10 mi
5:56 AM80 °FClear.7 mph91%30.83 "Hg10 mi
4:56 AM80 °FClear.8 mph94%30.83 "Hg10 mi
3:56 AM80 °FClear.8 mph91%30.83 "Hg10 mi
2:56 AM80 °FClear.8 mph91%30.83 "Hg10 mi
1:56 AM80 °FClear.8 mph91%30.83 "Hg10 mi
12:56 AM80 °FClear.9 mph91%30.84 "Hg10 mi
11:56 PM
Oct 22
80 °FPassing clouds.10 mph94%30.86 "Hg10 mi
10:56 PM80 °FClear.7 mph94%30.84 "Hg10 mi
9:56 PM80 °FPassing clouds.10 mph94%30.85 "Hg10 mi
8:56 PM81 °FClear.7 mph88%30.85 "Hg10 mi
7:56 PM81 °FClear.7 mph90%30.84 "Hg10 mi
6:56 PM81 °FClear.7 mph88%30.83 "Hg10 mi
5:56 PM82 °FSunny.7 mph88%30.82 "Hg10 mi
4:56 PM84 °FSunny.6 mph82%30.81 "Hg10 mi
3:56 PM85 °FSunny.6 mph80%30.80 "Hg10 mi
2:56 PM86 °FSunny.8 mph77%30.81 "Hg10 mi
1:56 PM87 °FSunny.8 mph75%30.81 "Hg10 mi
12:56 PM87 °FSunny.7 mph75%30.84 "Hg10 mi
11:56 AM87 °FSunny.8 mph75%30.86 "Hg10 mi
10:56 AM86 °FSunny.8 mph75%30.87 "Hg10 mi
9:56 AM85 °FSunny.7 mph77%30.87 "Hg10 mi
Weather by CustomWeather, © 2014

See weather overviewHow to use our weather pages